Meteo Giornale » Osservazioni meteo Stati Uniti (USA) » Wallops Island
ore: 15:08 - Osservazioni Meteo Wallops Island
Lat. 37° 56' N Lon. 75° 27' W Alt. 12 metri s.l.m.
28 °C
Nuvoloso
Temp. 24 Ore
24 °C
30 °C
Sud-Est
13 Km/h
Dew point 23 °C
Umidità 74 %
Visibilità 10 Km
Il sole sorge alle ore 06:31
Il sole tramonta alle ore 19:33
| Data e Ora | Cielo e Fenomeni | T °C | DP °C | Um. % | Pres. hPa | Vis. km | Vento km/h | |
|---|---|---|---|---|---|---|---|---|
| Oggi h: 15:08 | Nuvoloso | 28 | 23 | 74 | 1019 | 10 | SE 13 | |
| Oggi h: 14:54 | Temporale nelle vicinanze | 30 | 24 | 70 | 1019 | 10 | SE 14.8 | |
| Oggi h: 14:42 | Temporale nelle vicinanze | 30 | 24 | 70 | 1018 | 10 | S/SE 14.8 | |
| Oggi h: 13:54 | Sereno | 29 | 23 | 70 | 1019 | 10 | SE 13 | |
| Oggi h: 13:22 | Poco Nuvoloso | 29 | 24 | 74 | 1019 | 10 | SE 13 | |
| Oggi h: 12:54 | Molto Nuvoloso | 29 | 24 | 74 | 1019 | 10 | N 11.1 | |
| Oggi h: 11:54 | Poco Nuvoloso | 29 | 23 | 70 | 1019 | 10 | E 7.4 | |
| Oggi h: 10:54 | Nuvoloso | 29 | 23 | 70 | 1019 | 10 | N 5.5 | |
| Oggi h: 09:54 | Molto Nuvoloso | 27 | 23 | 78 | 1019 | 10 | N 5.5 | |
| Oggi h: 08:54 | Sereno | 27 | 24 | 83 | 1019 | 10 | N 5.5 | |
| Oggi h: 07:54 | Molto Nuvoloso | 24 | 23 | 94 | 1019 | 14 | N 5.5 | |
| Oggi h: 06:54 | Molto Nuvoloso | 24 | 23 | 94 | 1019 | 14 | S/SO 7.4 | |
| Oggi h: 05:54 | Sereno | 24 | 23 | 94 | 1018 | 10 | O/SO 7.4 | |
| Oggi h: 04:54 | Molto Nuvoloso | 24 | 23 | 94 | 1018 | 10 | SO 11.1 | |
| Oggi h: 03:54 | Coperto | 24 | 23 | 94 | 1019 | 10 | SO 7.4 | |
| Oggi h: 02:54 | Molto Nuvoloso | 24 | 23 | 94 | 1019 | 10 | S/SO 9.3 | |
| Oggi h: 01:54 | Sereno | 24 | 23 | 94 | 1019 | 10 | SO 7.4 | |
| Oggi h: 00:54 | Sereno | 24 | 23 | 94 | 1019 | 10 | SO 11.1 | |
| Ieri h: 23:54 | Sereno | 24 | 23 | 94 | 1019 | 10 | S/SO 9.3 | |
| Ieri h: 22:54 | Sereno | 25 | 23 | 88 | 1020 | 10 | S/SO 13 | |
| Ieri h: 21:54 | Sereno | 25 | 23 | 88 | 1020 | 10 | S 20.3 | |
| Ieri h: 20:54 | Sereno | 25 | 23 | 88 | 1020 | 10 | S 13 | |
| Ieri h: 19:54 | Sereno | 25 | 23 | 88 | 1020 | 10 | S 14.8 | |
| Ieri h: 18:54 | Sereno | 26 | 22 | 78 | 1020 | 10 | S 22.2 | |
| Ieri h: 17:54 | Sereno | 27 | 22 | 74 | 1020 | 10 | S 22.2 | |
| Ieri h: 16:54 | Sereno | 27 | 22 | 74 | 1020 | 10 | S/SE 18.5 | |
| Ieri h: 15:54 | Sereno | 28 | 22 | 69 | 1020 | 10 | S 16.7 | |



